Regional Weather Roundup
Issued by NWS Grand Forks, ND

Home | Current Version | Previous Version | Graphics & Text | Print | Product List | Glossary On
Versions: 1 2 3 4 5 6 7 8 9 10 11 12 13 14 15 16 17 18 19 20 21 22 23 24 25 26 27 28 29 30 31 32 33 34 35 36 37 38 39 40 41 42 43 44 45 46 47 48 49 50
000
ASUS43 KFGF 211510
RWRFGF
PRAIRIE TO PINES  WEATHER ROUNDUP
NATIONAL WEATHER SERVICE EASTERN NORTH DAKOTA/GRAND FORKS ND
1000 AM CDT TUE OCT 21 2014

 **SATELLITE DATA USED TO AUGMENT SKY COVER AT AUTOMATED STATIONS**
 *****  WEATHER ACROSS EASTERN NORTH DAKOTA  *****

CITY           SKY/WX    TMP DP  RH WIND       PRES   REMARKS
GRAND FORKS    SUNNY     45  40  82 SE18      30.00F
GRAND FRKS AFB SUNNY     44  43  95 S14G23    29.99F
GRAND FRKS NWS   N/A     45 N/A N/A S26         N/A
DEVILS LAKE    SUNNY     48  37  66 SE10      29.89F
FARGO          SUNNY     49  40  71 SE15G26   30.02S
WAHPETON ARPT  SUNNY     46  37  71 SE22      30.04
$$

 ***** WEATHER ACROSS CENTRAL AND WESTERN NORTH DAKOTA  *****

CITY           SKY/WX    TMP DP  RH WIND       PRES   REMARKS
BISMARCK       SUNNY     55  39  54 SE9       29.83S
MINOT          SUNNY     52  38  58 SE7       29.79F
JAMESTOWN      SUNNY     52  39  61 SE17      29.90F
MINOT AFB      SUNNY     46  41  83 SE9       29.78F
GARRISON         N/A     51  39  63 SE8       29.79F
WILLISTON      SUNNY     51  39  63 CALM      29.74S
DICKINSON      SUNNY     47  39  74 SE12      29.74F
HETTINGER      SUNNY     48  40  73 SE6       29.78F
$$

 *****  OTHER AIRPORT OBSERVATIONS IN OUR AREA  *****

CITY           SKY/WX    TMP DP  RH WIND       PRES   REMARKS
WALHALLA         N/A     41  41 100 S14G20    29.96F
GRAFTON AIRPOR FAIR      43  39  87 SE13      30.00F
VALLEY CITY AR FAIR      46  41  81 SE15      29.95F
CANDO          FAIR      48  41  76 SE12G18   29.90S
CAVALIER APRT  FAIR      41  39  93 S13G20    29.98F
GWINNER        SUNNY     48  39  71 SE14      29.99S
SHEYENNE NWR     N/A     46  40  79 SE13      29.95
ROLLA          FAIR      45  41  87 S7        29.90S
 ***** THE ABOVE OBSERVATIONS ARE NON NWS ARE NOT QUALITY
       CONTROLLED AND MAY MIS-REPORT RAIN FOR SNOW...
$$

  *****  WEATHER ACROSS NORTHERN MINNESOTA  *****

CITY           SKY/WX    TMP DP  RH WIND       PRES   REMARKS
FLAG ISLAND    SUNNY     45  37  76 SE15      30.12R
WARROAD        SUNNY     43  39  87 SE12      30.11S
ROSEAU         SUNNY     45  39  81 SE15      30.08S
HALLOCK        SUNNY     45  39  81 SE17      30.01F
THF RVR FALLS  SUNNY     45  39  81 SE14      30.06S
BAUDETTE       SUNNY     42  37  82 SE12G18   30.13S
WASKISH        SUNNY     41  39  93 SE8       30.13S
CROOKSTON      SUNNY     46  41  81 S20       30.04F
STEPHEN NDAWN    N/A     46  41  81 S18         N/A
GREENBUSH NDAW   N/A     45  39  81 SE13        N/A
$$
  *****  WEATHER ACROSS CENTRAL AND WEST MINNESOTA  *****

CITY           SKY/WX    TMP DP  RH WIND       PRES   REMARKS
FOSSTON        SUNNY     46  41  81 SE6G18    30.07S
BEMIDJI        SUNNY     42  38  86 SE13G20   30.12F
PARK RAPIDS    SUNNY     43  38  82 SE15      30.13S
ELBOW LAKE     FAIR      47  39  73 SE18G24   30.07F
WADENA         SUNNY     43  37  81 SE15      30.12S
DETROIT LAKES  SUNNY     45  39  81 SE16G22   30.08S
MOORHEAD       SUNNY     48  45  87 S17G24    30.04S
FERGUS FALLS   SUNNY     48  37  66 SE18G24   30.08S
MORRIS MN      SUNNY     46  41  81 SE16      30.07F
STAPLES        SUNNY     45  37  76 SE12      30.14S
$$
  *****  WEATHER ELSEWHERE ACROSS MINNESOTA  *****

CITY           SKY/WX    TMP DP  RH WIND       PRES   REMARKS
DULUTH         CLOUDY    42  33  70 SE10      30.23R
INTRNTL FALLS  CLOUDY    42  35  76 SE8       30.19R
ELY            CLOUDY    37  34  87 SE8       30.24R
CLOQUET        CLOUDY    43  34  70 E10       30.23R
WHEATON        SUNNY     45  37  76 SE18      30.06F
BRAINERD       SUNNY     44  39  82 SE10      30.18R
HIBBING        CLOUDY    42  35  76 SE9       30.22R
ALEXANDRIA     SUNNY     45  40  82 SE14      30.13S
SAINT CLOUD    SUNNY     49  39  68 SE8       30.18S
MINNEAPOLIS    SUNNY     46  38  73 E14       30.21S
$$

  *****  WEATHER ACROSS SOUTH DAKOTA  *****

CITY           SKY/WX    TMP DP  RH WIND       PRES   REMARKS
SIOUX FALLS    SUNNY     54  41  61 SE8       30.07F
BROOKINGS      NOT AVBL
WATERTOWN      SUNNY     52  39  61 SE15G21   30.01F
HURON          SUNNY     56  38  50 S14G22    29.97S
SISSETON         N/A     44  39  82 S13       30.02F
ABERDEEN       SUNNY     59  39  47 S16       29.93F
MITCHELL       SUNNY     55  40  56 SE16      30.00F
PIERRE         SUNNY     56  42  59 SE13      29.87R
MOBRIDGE       SUNNY     59  43  55 S13       29.82R
RAPID CITY     SUNNY     56  42  59 E5        29.84S
$$

  *****  SOME WEATHER IN NEARBY STATES *****

CITY           SKY/WX    TMP DP  RH WIND       PRES   REMARKS
GLASGOW MT     MOSUNNY   50  40  68 E15       29.66S
GREAT FALLS MT LGT RAIN  50  38  63 N3        29.66R
CHEYENNE WY    MOSUNNY   60  37  42 W8        30.05S
SCOTTSBLUFF NE MOSUNNY   53  44  71 CALM      29.98R
OMAHA NE       SUNNY     50  43  77 CALM      30.14S
DES MOINES IA  SUNNY     53  43  68 E5        30.16R
DAVENPORT IA   SUNNY     50  41  71 NE12      30.20R
CHICAGO IL     PTSUNNY   49  40  71 N13       30.15R
EAU CLAIRE WI  CLOUDY    43  36  76 SE7       30.23R
LA CROSSE WI   SUNNY     47  37  68 E7        30.23R
$$

  *****  SOME NATIONAL WEATHER *****

CITY           SKY/WX    TMP DP  RH WIND       PRES   REMARKS
LA GUARDIA NY  PTSUNNY   65  48  54 NE7       29.88F
RALEIGH NC     MOSUNNY   66  51  58 CALM      29.93F
ATLANTA GA     SUNNY     65  52  62 NW8       30.04S
NEW ORLEANS LA MOSUNNY   73  55  53 NE10      30.06R
OKLAHOMA CITY  MOSUNNY   67  60  78 S6        30.10S
ALBUQUERQUE NM PTSUNNY   53  47  79 S7        30.17R
SALT LAKE CITY MOSUNNY   65  39  38 S15G25    29.89S
LOS ANGELES CA MOSUNNY   65  61  87 VRB3      29.92R
BOISE ID       LGT RAIN  48  44  86 S5        29.95R
SEATTLE WA     MOCLDY    54  50  87 S10       29.89R
$$

*** WEATHER ACROSS MANITOBA...SASKATCHEWAN AND ONTARIO ***
                ***ONTARIO***

CITY           SKY/WX    TMP DP  RH WIND       PRES   REMARKS
GERALDTON      MOSUNNY   30  28  93 SE7       30.31R WCI  23
THUNDER BAY    PTSUNNY   36  32  87 VRB2      30.32R
SIOUX LOOKOUT  CLOUDY    36  32  87 S10       30.21S
TORONTO        LGT RAIN  52  48  87 N14       29.87R
BIG TROUT LK   CLOUDY    36  32  87 S17G23    30.12F
PICKLE LAKE    CLOUDY    34  30  86 S13G20    30.22R WCI  25
DRYDEN         CLOUDY    39  34  81 S14G21    30.19S
KENORA         NOT AVBL
$$
                *** MANITOBA***

CITY           SKY/WX    TMP DP  RH WIND       PRES   REMARKS
BRANDON        SUNNY     52  41  66 SE12      29.87F
DAUPHIN        SUNNY     61  39  44 VRB3      29.79F
ISLAND LAKE    MOSUNNY   41  36  81 S17G25    29.95F
PILOT MOUND    NOT AVBL
THE PAS        MOSUNNY   45  41  87 S15       29.64F
THOMPSON       PTSUNNY   43  41  93 S6        29.70F
WINNIPEG       NOT AVBL
LYNN LAKE      CLOUDY    41  39  93 S10       29.59F
CHURCHILL      CLOUDY    36  34  93 S9        29.72F
GILLAM         MOSUNNY   41  36  81 S15G22    29.79F
$$
                ***SASKATCHEWAN***

CITY           SKY/WX    TMP DP  RH WIND       PRES   REMARKS
ESTEVAN        MOSUNNY   45  37  76 E9        29.75S
KINDERSLEY     MOCLDY    48  36  61 S5        29.60S
LLOYDMINSTER   CLOUDY    45  36  70 W9G22     29.53R
PRINCE ALBERT  NOT AVBL
REGINA         SUNNY     45  41  87 SE13      29.69S
YORKTON        SUNNY     46  37  71 S17G23    29.71F
N. BATTLEFORD  CLEAR     52  36  54 SW5       29.57S
LA RONGE       MOCLDY    46  43  87 E3        29.51F
SASKATOON      PTCLDY    46  39  76 S9        29.61S
SWIFT CURRENT  MOSUNNY   54  41  62 S12       29.61F
$$
NOTE: THESE ARE AUTOMATED STATIONS WITH LIMITED QUALITY CONTROL
      "FAIR" INDICATES FEW OR NO CLOUDS BELOW 12,000 FEET WITH NO
      SIGNIFICANT WEATHER AND/OR OBSTRUCTIONS TO VISIBILITY.
      SKY/WX - SKY CONDITION AND SIGNIFICANT WEATHER.
      TMP - AIR TEMPERATURE.    DP   - DEWPOINT TEMPERATURE.
      RH  - RELATIVE HUMIDITY.  PRES - PRESSURE.
      HX  - HEAT INDEX.         WCI  - WIND CHILL INDEX.
$


USA.gov is the U.S. government's official web portal to all federal, state and local government web resources and services.